QPF
0.00 0.00 0.00 0.00 0.00 0.00 0.00 0.00 0.00 0.00 0.00 0.00 0.00 0.00 0.00 0.00 0.00 0.00 0.00 0.00 0.00 0.00 0.00 0.00 0.00 0.00 0.00 0.00 0.00 0.00 0.00 0.00
0.00 0.00 0.00 0.00 0.00 0.00 0.00 0.00 0.00 0.00 0.00 0.00 0.00 0.00 0.00 0.00 0.00 0.00 0.00 0.00 0.00 0.00 0.00 0.00 0.00 0.00 0.00 0.00 0.00 0.00 0.00 0.00
0.00 0.00 0.00 0.00 0.00 0.00 0.00 0.00 0.00 0.00 0.00 0.00 0.00 0.00 0.00 0.00 0.00 0.00 0.00 0.00 0.00 0.00 0.00 0.00 0.00 0.00 0.00 0.00 0.00 0.00 0.00 0.00
0.00 0.00 0.00 0.00 0.00 0.00 0.00 0.00 0.00 0.00 0.00 0.00 0.00 0.00 0.00 0.00 0.00 0.00 0.00 0.00 0.00 0.00 0.00 0.00 0.00 0.00 0.00 0.00 0.00 0.00 0.00 0.00
0.00 0.00 0.00 0.00 0.00 0.00 0.00 0.00 0.00 0.00 0.00 0.00 0.00 0.00 0.00 0.00 0.00 0.00 0.00 0.00 0.00 0.00 0.00 0.00 0.00 0.00 0.00 0.00 0.00 0.00 0.00 0.00
0.00 0.00 0.00 0.00 0.00 0.00 0.00 0.00 0.00 0.00 0.00 0.00 0.00 0.00 0.00 0.00 0.00 0.00 0.00 0.00 0.00 0.00 0.00 0.00 0.00 0.00 0.00 0.00 0.00 0.00 0.00 0.00
0.00 0.00 0.00 0.00 0.00 0.00 0.00 0.00 0.00 0.00 0.00 0.00 0.00 0.00 0.00 0.00 0.00 0.00 0.00 0.00 0.00 0.00 0.00 0.00 0.00 0.00 0.00 0.00 0.00 0.00 0.00 0.00
0.00 0.00 0.00 0.00 0.00 0.00 0.00 0.00 0.00 0.00 0.00 0.00 0.00 0.00 0.00 0.00 0.00 0.00 0.00 0.00 0.00 0.00 0.00 0.00 0.00 0.00 0.00 0.00 0.00 0.00 0.00 0.00
0.00 0.00 0.00 0.00 0.00 0.00 0.00 0.00 0.00 0.00 0.00 0.00 0.00 0.00 0.00 0.00 0.00 0.00 0.00 0.00 0.00 0.00 0.00 0.00 0.00 0.00 0.00 0.00 0.00 0.00 0.00 0.00
0.00 0.00 0.00 0.00 0.00 0.00 0.00 0.00 0.00 0.00 0.00 0.00 0.00 0.00 0.00 0.00 0.00 0.00 0.00 0.00 0.00 0.00 0.00 0.00 0.00 0.00 0.00 0.00 0.00 0.00 0.00 0.00
0.00 0.00 0.00 0.00 0.00 0.00 0.00 0.00 0.00 0.00 0.00 0.00 0.00 0.00 0.00 0.00 0.00 0.00 0.00 0.00 0.00 0.00 0.00 0.00 0.00 0.00 0.00 0.00 0.00 0.00 0.00 0.00
0.00 0.00 0.01 0.00 0.00 0.00 0.00 0.00 0.00 0.00 0.00 0.00 0.00 0.00 0.00 0.00 0.00 0.00 0.00 0.00 0.00 0.00 0.00 0.00 0.00 0.00 0.00 0.00 0.00 0.00 0.00 0.00
0.00 0.00 0.00 0.00 0.00 0.00 0.00 0.00 0.00 0.00 0.00 0.00 0.00 0.00 0.00 0.00 0.00 0.00 0.00 0.00 0.00 0.00 0.00 0.00 0.00 0.00 0.00 0.00 0.00 0.00 0.00 0.00
0.00 0.00 0.00 0.00 0.00 0.00 0.00 0.00 0.00 0.00 0.00 0.00 0.00 0.00 0.00 0.00 0.00 0.00 0.00 0.00 0.00 0.00 0.00 0.00 0.00 0.00 0.00 0.00 0.00 0.00 0.00 0.00
0.00 0.00 0.00 0.00 0.01 0.04 0.04 0.00 0.00 0.00 0.00 0.00 0.00 0.00 0.00 0.00 0.00 0.00 0.00 0.00 0.00 0.00 0.00 0.00 0.00 0.00 0.00 0.00 0.00 0.00 0.00 0.00
0.00 0.00 0.00 0.00 0.00 0.00 0.00 0.00 0.00 0.00 0.00 0.00 0.00 0.00 0.00 0.00 0.00 0.00 0.00 0.00 0.00 0.00 0.00 0.00 0.00 0.00 0.00 0.00 0.00 0.00 0.00 0.00
0.00 0.00 0.00 0.00 0.00 0.00 0.00 0.00 0.00 0.00 0.00 0.00 0.00 0.00 0.00 0.00 0.00 0.00 0.00 0.00 0.00 0.00 0.00 0.00 0.00 0.00 0.00 0.00 0.00 0.00 0.00 0.00
0.00 0.00 0.00 0.00 0.00 0.00 0.00 0.00 0.00 0.00 0.00 0.00 0.00 0.00 0.00 0.00 0.00 0.00 0.00 0.00 0.00 0.00 0.00 0.00 0.00 0.00 0.00 0.00 0.00 0.00 0.00 0.00
0.00 0.00 0.00 0.00 0.00 0.00 0.00 0.00 0.00 0.00 0.00 0.00 0.00 0.00 0.00 0.00 0.00 0.00 0.00 0.00 0.00 0.00 0.00 0.00 0.00 0.00 0.00 0.00 0.00 0.00 0.00 0.00
0.00 0.00 0.00 0.00 0.01 0.03 0.01 0.07 0.12 0.12 0.04 0.01 0.01 0.01 0.02 0.00 0.00 0.00 0.00 0.00 0.00 0.00 0.00 0.00 0.00 0.00 0.00 0.00 0.00 0.00 0.00 0.00
MSLP
1009.47 1010.28 1010.94 1011.32 1011.79 1012.19 1012.73 1013.16 1013.60 1014.03 1014.51 1014.98 1015.37 1015.72 1016.05 1016.44 1016.81 1017.08 1017.36 1017.58 1017.82 1018.02 1018.25 1018.48 1018.74 1018.98 1019.17 1019.35 1019.37 1019.34 1019.37 1019.41
1009.83 1010.36 1011.10 1011.61 1012.08 1012.39 1012.77 1013.22 1013.68 1014.10 1014.57 1015.00 1015.42 1015.83 1016.16 1016.45 1016.77 1017.13 1017.42 1017.66 1017.88 1018.08 1018.32 1018.58 1018.82 1019.04 1019.16 1019.26 1019.37 1019.39 1019.36 1019.32
1010.15 1010.53 1011.13 1011.73 1012.28 1012.69 1013.04 1013.35 1013.77 1014.25 1014.70 1015.15 1015.60 1015.97 1016.29 1016.56 1016.84 1017.09 1017.43 1017.73 1017.95 1018.16 1018.37 1018.63 1018.91 1019.10 1019.31 1019.34 1019.33 1019.46 1019.39 1019.34
1010.33 1010.69 1011.29 1011.86 1012.30 1012.83 1013.30 1013.61 1013.97 1014.37 1014.76 1015.21 1015.63 1016.03 1016.34 1016.65 1016.97 1017.26 1017.52 1017.83 1018.12 1018.31 1018.48 1018.68 1018.93 1019.18 1019.36 1019.52 1019.52 1019.40 1019.51 1019.60
1010.28 1010.66 1011.00 1011.67 1012.20 1012.77 1013.34 1013.63 1014.04 1014.39 1014.70 1015.09 1015.58 1016.05 1016.46 1016.82 1017.10 1017.39 1017.72 1017.97 1018.28 1018.47 1018.67 1018.81 1018.89 1019.08 1019.27 1019.46 1019.57 1019.46 1019.49 1019.50
1010.14 1010.61 1011.15 1011.60 1012.08 1012.48 1012.99 1013.48 1013.91 1014.35 1014.68 1015.05 1015.48 1015.97 1016.42 1016.84 1017.19 1017.39 1017.67 1018.01 1018.38 1018.59 1018.80 1018.90 1019.01 1019.07 1019.21 1019.32 1019.54 1019.66 1019.65 1019.58
1009.89 1010.52 1011.05 1011.52 1012.00 1012.28 1012.75 1013.25 1013.62 1014.07 1014.57 1014.92 1015.22 1015.69 1016.21 1016.62 1017.02 1017.39 1017.65 1017.94 1018.27 1018.55 1018.75 1018.97 1019.17 1019.23 1019.25 1019.30 1019.31 1019.49 1019.56 1019.51
1009.75 1010.32 1010.98 1011.39 1011.78 1012.15 1012.54 1012.97 1013.36 1013.78 1014.19 1014.50 1014.98 1015.33 1015.82 1016.34 1016.80 1017.12 1017.55 1017.76 1018.03 1018.35 1018.62 1018.90 1019.08 1019.21 1019.24 1019.16 1019.10 1019.06 1019.19 1019.21
1008.90 1009.64 1010.38 1011.11 1011.60 1012.01 1012.30 1012.50 1012.99 1013.45 1013.73 1014.17 1014.58 1015.12 1015.56 1016.04 1016.52 1016.96 1017.07 1017.42 1017.86 1018.32 1018.60 1018.74 1018.99 1019.05 1019.09 1018.94 1018.88 1018.79 1018.78 1018.86
1008.15 1008.83 1009.66 1010.32 1010.95 1011.54 1012.04 1012.28 1012.68 1013.02 1013.43 1013.82 1014.23 1014.64 1015.18 1015.66 1016.15 1016.50 1016.68 1017.08 1017.46 1017.92 1018.38 1018.65 1018.73 1018.83 1018.85 1018.75 1018.60 1018.49 1018.47 1018.58
1007.59 1008.21 1008.82 1009.42 1010.25 1010.92 1011.48 1011.86 1012.33 1012.58 1013.02 1013.35 1013.75 1014.24 1014.71 1015.22 1015.36 1015.59 1016.10 1016.66 1017.12 1017.50 1017.83 1018.11 1018.44 1018.48 1018.56 1018.46 1018.36 1018.30 1018.04 1018.04
1006.87 1007.31 1007.83 1008.75 1009.64 1010.47 1011.02 1011.54 1011.88 1011.97 1012.38 1012.83 1013.26 1013.70 1014.12 1014.58 1014.94 1015.31 1015.66 1016.21 1016.64 1017.04 1017.34 1017.70 1017.79 1017.91 1018.12 1018.11 1017.93 1017.80 1017.63 1017.86
1006.20 1006.90 1007.29 1008.23 1009.03 1009.89 1010.45 1010.43 1010.94 1011.47 1011.85 1012.25 1012.75 1013.04 1013.50 1013.93 1014.30 1014.96 1015.11 1015.48 1015.75 1016.29 1016.74 1017.14 1017.42 1017.63 1018.19 1018.18 1017.86 1017.60 1017.44 1017.39
1005.24 1005.74 1006.30 1006.87 1007.52 1008.07 1008.88 1009.55 1010.19 1010.69 1011.16 1011.27 1011.57 1012.24 1012.71 1013.20 1013.71 1014.15 1014.61 1014.91 1015.22 1015.57 1015.97 1016.55 1016.80 1017.14 1017.70 1018.21 1017.96 1017.30 1016.81 1016.74
1003.92 1004.54 1005.36 1006.02 1006.46 1007.43 1008.30 1009.29 1009.93 1010.34 1010.39 1010.49 1010.60 1010.99 1011.57 1012.16 1012.65 1013.20 1013.69 1014.16 1014.41 1014.67 1015.18 1015.60 1016.17 1016.64 1016.63 1017.04 1017.62 1017.26 1016.97 1016.43
1002.74 1003.28 1004.00 1004.71 1005.68 1006.49 1006.78 1006.99 1007.58 1007.65 1008.30 1009.14 1009.79 1010.08 1010.50 1010.94 1011.47 1012.05 1012.67 1013.09 1013.49 1013.99 1014.40 1014.73 1015.35 1015.95 1016.47 1016.10 1016.17 1016.23 1016.75 1016.80
1001.60 1002.02 1002.56 1003.20 1004.20 1004.83 1005.49 1005.82 1006.22 1006.68 1007.49 1008.21 1008.92 1009.40 1009.71 1009.89 1010.27 1010.88 1011.34 1011.87 1012.39 1012.87 1013.48 1014.06 1014.31 1014.84 1015.07 1015.51 1015.90 1016.32 1016.43 1016.70
1001.06 1001.47 1001.95 1002.47 1003.18 1003.81 1004.60 1004.86 1005.29 1006.28 1006.85 1007.28 1007.71 1008.37 1008.97 1009.58 1009.90 1010.02 1010.41 1010.83 1011.04 1011.72 1012.35 1012.75 1013.07 1013.54 1013.87 1014.33 1014.60 1015.01 1015.38 1016.19
1001.21 1001.20 1001.69 1002.27 1003.01 1003.61 1003.88 1004.33 1005.08 1005.16 1005.61 1006.22 1007.13 1007.74 1008.32 1008.49 1009.18 1009.77 1009.87 1009.97 1010.29 1010.55 1011.19 1011.83 1012.18 1012.45 1012.75 1012.94 1013.35 1013.53 1013.99 1014.53
1001.94 1001.86 1002.38 1002.25 1002.99 1003.28 1003.95 1004.24 1005.04 1005.88 1006.00 1006.36 1006.85 1007.10 1007.10 1008.17 1007.58 1008.22 1008.88 1009.60 1009.87 1009.91 1010.20 1010.57 1011.03 1011.30 1011.58 1011.92 1012.28 1012.65 1013.00 1013.50
Thickness
5798 5790 5785 5782 5778 5776 5772 5769 5765 5762 5758 5753 5750 5747 5744 5740 5737 5735 5733 5731 5729 5728 5727 5726 5724 5723 5722 5721 5722 5722 5722 5722
5794 5789 5783 5779 5775 5773 5771 5768 5765 5761 5757 5754 5750 5747 5744 5741 5738 5735 5732 5731 5730 5728 5727 5725 5724 5723 5722 5722 5721 5721 5723 5722
5790 5786 5781 5777 5772 5770 5767 5766 5763 5759 5756 5752 5749 5746 5743 5741 5739 5736 5733 5731 5730 5728 5727 5725 5723 5722 5721 5721 5722 5721 5721 5720
5785 5782 5778 5773 5770 5767 5764 5762 5760 5757 5754 5751 5748 5745 5742 5740 5737 5735 5733 5730 5728 5727 5726 5724 5722 5722 5721 5720 5720 5720 5718 5716
5780 5779 5776 5772 5769 5765 5762 5761 5758 5756 5753 5750 5747 5744 5740 5737 5735 5733 5731 5729 5727 5725 5723 5723 5723 5722 5721 5720 5719 5718 5717 5716
5777 5776 5773 5769 5766 5765 5762 5760 5757 5754 5751 5749 5746 5742 5739 5736 5734 5732 5730 5727 5725 5724 5722 5721 5720 5720 5719 5719 5717 5715 5714 5713
5773 5772 5769 5768 5765 5763 5761 5759 5757 5754 5750 5747 5745 5742 5739 5736 5733 5730 5728 5726 5724 5722 5721 5719 5718 5717 5716 5716 5715 5714 5712 5711
5769 5767 5764 5763 5763 5763 5761 5758 5757 5754 5751 5748 5744 5742 5739 5736 5732 5730 5727 5725 5723 5721 5719 5717 5716 5715 5714 5714 5714 5714 5711 5710
5770 5767 5764 5760 5759 5758 5758 5758 5755 5753 5751 5748 5745 5741 5738 5734 5731 5728 5727 5725 5722 5718 5716 5715 5713 5713 5713 5713 5712 5713 5712 5710
5769 5768 5764 5762 5759 5757 5755 5755 5754 5752 5751 5748 5744 5741 5737 5734 5730 5728 5727 5724 5721 5718 5715 5713 5712 5711 5711 5711 5711 5711 5710 5708
5765 5766 5765 5764 5759 5756 5753 5752 5752 5751 5748 5748 5744 5740 5737 5733 5732 5731 5728 5724 5720 5718 5715 5713 5711 5710 5710 5710 5710 5710 5710 5708
5763 5765 5764 5761 5757 5752 5750 5749 5750 5752 5750 5746 5743 5739 5738 5734 5731 5729 5727 5723 5720 5717 5715 5712 5711 5711 5709 5709 5710 5711 5710 5707
5761 5758 5761 5757 5754 5748 5748 5752 5751 5750 5749 5745 5742 5740 5737 5735 5732 5727 5725 5724 5723 5719 5715 5711 5708 5708 5703 5702 5705 5707 5706 5705
5763 5761 5758 5759 5758 5758 5754 5751 5748 5747 5746 5747 5746 5742 5739 5735 5733 5730 5726 5724 5721 5719 5716 5710 5708 5706 5699 5695 5693 5702 5706 5705
5764 5764 5759 5757 5758 5753 5748 5742 5740 5741 5745 5749 5751 5746 5742 5739 5735 5731 5728 5726 5723 5721 5717 5713 5707 5704 5704 5699 5688 5693 5697 5703
5760 5764 5762 5761 5755 5748 5749 5752 5751 5758 5755 5752 5748 5745 5743 5741 5738 5733 5729 5727 5725 5721 5718 5715 5708 5701 5696 5702 5701 5700 5692 5691
5756 5759 5763 5762 5758 5756 5753 5752 5756 5756 5750 5746 5744 5742 5741 5741 5739 5736 5733 5729 5727 5724 5718 5713 5710 5704 5700 5694 5693 5688 5687 5685
5745 5748 5749 5754 5755 5754 5750 5752 5752 5745 5744 5743 5743 5741 5738 5734 5732 5735 5734 5730 5728 5724 5719 5715 5711 5707 5703 5699 5693 5688 5687 5675
5731 5739 5739 5742 5746 5746 5748 5748 5744 5744 5742 5739 5732 5731 5729 5733 5729 5725 5727 5728 5725 5721 5715 5711 5709 5706 5703 5701 5697 5695 5690 5685
5715 5722 5725 5732 5731 5736 5736 5737 5731 5724 5725 5725 5723 5721 5726 5714 5725 5725 5723 5719 5717 5715 5713 5710 5709 5707 5704 5701 5695 5693 5689 5685